Regional Weather Roundup
Issued by NWS

Home | Current Version | Previous Version | Graphics & Text | Print | Product List | Glossary On
Versions: 1 2 3 4 5 6 7 8 9 10 11 12 13 14 15 16 17 18 19 20 21 22 23 24 25 26 27 28 29 30 31 32 33 34 35 36 37 38 39 40 41 42 43 44 45 46 47 48 49 50
257
ASUS45 KABQ 181110
RWRNM
NEW MEXICO REGIONAL WEATHER ROUNDUP
NATIONAL WEATHER SERVICE ALBUQUERQUE NM
500 AM MDT FRI AUG 18 2017

NOTE: "FAIR" MEANS FEW OR NO CLOUDS BELOW 12,000 FEET AGL WITH NO
       SIGNIFICANT WEATHER OR OBSTRUCTIONS TO VISION.

      THIS PRODUCT IS RELEASED AS TWO VERSIONS.  ONE VERSION NEAR
      THE TOP OF THE HOUR CONTAINING PRELIMINARY DATA FROM ALBUQUERQUE
      AND OTHER STATIONS.  A FINAL VERSION WITH ADDITIONAL DATA IS
      ISSUED ABOUT 10 MINUTES AFTER THE HOUR.

NMZ501-503-504-510>518-181200-
NORTHWEST PLATEAU/NORTHCENTRAL MOUNTAINS

CITY           SKY/WX    TMP DP  RH WIND       PRES   REMARKS
FARMINGTON     FAIR      54  35  48 E8        30.19S
LOS ALAMOS     MOCLDY    66  32  28 NW3       30.31S
SANTA FE       FAIR      60  40  47 N3        30.25R
TAOS           FAIR      47  36  65 N7        30.34R
ANGEL FIRE     FAIR      34  32  93 CALM      30.43S

$$
NMZ402-403-502-505>509-181200-
WESTCENTRAL MOUNTAINS/SOUTHWEST MOUNTAINS

CITY           SKY/WX    TMP DP  RH WIND       PRES   REMARKS
GALLUP         FAIR      46  29  51 E3        30.29R
GRANTS         FAIR      46  25  44 CALM      30.30R
SILVER CITY    FAIR      59  40  50 N12       30.19S

$$
NMZ407-409-411-412-181200-
SOUTHERN DESERTS

CITY           SKY/WX    TMP DP  RH WIND       PRES   REMARKS
DEMING         FAIR      64  45  49 W7        30.11R
LAS CRUCES     FAIR      68  55  64 S3        30.13R
HOLLOMAN AFB   FAIR      73  56  53 S8        30.11S
ALAMOGORDO     FAIR      72  54  53 SW7       30.12R
T OR C         FAIR      72  41  32 SW7       30.13R

$$
NMZ519>523-181200-
CENTRAL VALLEYS/CENTRAL HIGHLANDS

CITY           SKY/WX    TMP DP  RH WIND       PRES   REMARKS
ALBUQUERQUE    FAIR      70  39  32 NE6       30.17R
MORIARTY ARPT  MOCLDY    54  46  75 NW5       30.26R
CLINES CORNERS FAIR      60  38  43 SW10      30.30R
BELEN          FAIR      62  42  47 SW6       30.16R
SOCORRO        FAIR      65  41  41 NW5       30.15R

$$
NMZ524>526-539-540-181200-
SOUTHCENTRAL MOUNTAINS

CITY           SKY/WX    TMP DP  RH WIND       PRES   REMARKS
RUIDOSO        FAIR      61  45  55 NW3       30.31R

$$
NMZ527>531-181200-
NORTHEAST HIGHLANDS/NORTHEAST PLAINS

CITY           SKY/WX    TMP DP  RH WIND       PRES   REMARKS
LAS VEGAS      FAIR      52  46  80 NE8       30.29R
RATON          FAIR      49  46  90 E7        30.25R
CLAYTON        FAIR      62  61  96 SW8       30.15S

$$
NMZ532>537-181200-
EASTCENTRAL PLAINS

CITY           SKY/WX    TMP DP  RH WIND       PRES   REMARKS
SANTA ROSA     FAIR      63  58  84 SE9       30.15R
TUCUMCARI      FAIR      72  60  66 CALM      30.10F
CANNON AFB     FAIR      65  65 100 CALM      30.14S
CLOVIS AIRPORT FAIR      64  62  93 SW6       30.13S

$$
NMZ028-029-538-181200-
SOUTHEAST PLAINS

CITY           SKY/WX    TMP DP  RH WIND       PRES   REMARKS
ROSWELL        FAIR      68  61  78 S6        30.07F
ARTESIA        FAIR      68  64  88 SE6       30.08R
CARLSBAD       FAIR      67  66  97 SW3       30.05S
HOBBS          FAIR      66  63  88 CALM      30.09F


$$




USA.gov is the U.S. government's official web portal to all federal, state and local government web resources and services.